Regional Weather Roundup
Issued by NWS

Home | Current Version | Previous Version | Text Only | Print | Product List | Glossary On
Versions: 1 2 3 4 5 6 7 8 9 10 11 12 13 14 15 16 17 18 19 20 21 22 23 24 25 26 27 28 29 30 31 32 33 34 35 36 37 38 39 40 41 42 43 44 45 46 47 48 49 50
533
ASUS43 KLMK 241402
RWRKY
KENTUCKY REGIONAL WEATHER ROUNDUP
NATIONAL WEATHER SERVICE LOUISVILLE KY
1000 AM EDT MON APR 24 2017

NOTE "FAIR" INDICATES FEW OR NO CLOUDS BELOW 12,000 FEET
WITH NO SIGNIFICANT WEATHER AND/OR OBSTRUCTIONS TO VISIBILITY.

KYZ001>023-026-027-061>063-070>075-241500-
WESTERN AND SOUTH CENTRAL KENTUCKY

CITY           SKY/WX    TMP DP  RH WIND       PRES   REMARKS
PADUCAH        SUNNY     61  45  55 N8        29.91S
HENDERSON      SUNNY     60  41  49 NE8       29.92S
OWENSBORO      SUNNY     60  41  49 NE9       29.90S
HOPKINSVILLE   MOSUNNY   59  52  78 NE9       29.87S
BOWLING GREEN  SUNNY     61  53  75 NE7       29.87S
GLASGOW        NOT AVBL
$$

KYZ024-025-028>034-038-045-046-053-241500-
NORTH CENTRAL KENTUCKY

CITY           SKY/WX    TMP DP  RH WIND       PRES   REMARKS
LOUISVILLE/SDF MOSUNNY   63  43  48 NE13      29.89S
LOUISVILLE/LOU SUNNY     63  42  46 NE9       29.89F
FORT KNOX      SUNNY     60  44  56 N12       29.86S
$$

KYZ035>037-039>044-047>052-055>060-089>105-241500-
NORTHEAST KENTUCKY

CITY           SKY/WX    TMP DP  RH WIND       PRES   REMARKS
LEXINGTON      CLOUDY    59  47  64 E17       29.88F
COVINGTON      MOSUNNY   58  39  49 NE10      29.93S
FRANKFORT      CLOUDY    58  42  55 NE8       29.88S
$$

KYZ054-064>069-076>088-106>120-241500-
SOUTHEAST KENTUCKY

CITY           SKY/WX    TMP DP  RH WIND       PRES   REMARKS
JACKSON        CLOUDY    52  48  86 VRB3      29.88R
LONDON         CLOUDY    53  48  83 E5        29.85F
SOMERSET       CLOUDY    52  50  93 E5        29.87R
MIDDLESBORO    SUNNY     59  52  77 CALM      29.83F
MONTICELLO     NOT AVBL
$$





USA.gov is the U.S. government's official web portal to all federal, state and local government web resources and services.